Weather in Solontsovskiy

Russia / Volgograd Oblast     50°10′51″N   42°24′48″E
temp.,
°C
wind,
m/s
gust,
m/s
humid.,
%
clouds,
%
prec.,
mm/h
press.,
hPa
HPBL,
m
15 may, sat
sat1500:00+18sse41172100 0.0 1013198
03:00+17sse51462100 0.0 1013272
06:00+16sse5136216 0.0 1014267
09:00+22sse7124719 0.0 1014573
12:00+26s7114295 0.0 10141223
15:00+27s7114296 0.0 10131853
18:00+25ssw375715 0.0 1013216
21:00+20ssw117068 0.0 101311
16 may, sun
sun1600:00+18nw017627 0.0 101311
03:00+16nne238622 0.0 101433
06:00+17ese24665 0.0 101494
09:00+22sse574498 0.0 1015468
12:00+26sse5733100 0.0 10141071
15:00+28sse57295 0.0 10141679
18:00+26ese334663 0.0 101359
21:00+20ene4753100 0.0 101382
17 may, mon
mon1700:00+19ese41255100 0.0 1012201
03:00+17ese4550100 0.0 101268
06:00+17ese41059100 0.0 1013177
09:00+23ese7134492 0.0 1013542
12:00+28se7123394 0.0 10121271
15:00+29ese71235100 0.0 10112620
18:00+25ese51149100 0.0 1010249
21:00+21ese6154325 0.0 1011267
18 may, tue
tue1800:00+18ese5124966 0.0 1011175
03:00+16ese494837 0.0 1010116
06:00+16ese4115513 0.0 1010179
09:00+23se6103923 0.0 1010565
12:00+27se71032100 0.0 10091126
15:00+27sse61037100 0.0 10091433
18:00+24ssw475387 0.0 1009215
21:00+18wsw377559 0.0 1010120
19 may, wed
wed1900:00+18ssw2275100 0.1 101119
03:00+17sw3678100 0.1 1012153
06:00+17s347989 0.0 1012164
09:00+21sw56607 0.0 1012816
12:00+23wsw4556100 0.2 10121568
15:00+23wsw3453100 0.2 10121192
18:00+23sw225797 0.0 1012435
21:00+19wsw346791 0.1 101279